Weather Service Report


711 
ASUS45 KPSR 300010
RWRAZ 

ARIZONA HOURLY REGIONAL WEATHER ROUNDUP
NATIONAL WEATHER SERVICE PHOENIX AZ
500 PM MST FRI APR 29 2016

NOTE: FAIR INDICATES FEW OR NO CLOUDS BELOW 12,000 FEET WITH NO
SIGNIFICANT WEATHER AND/OR OBSTRUCTIONS TO VISIBILITY.

AZZ001>003-036-300100-
NORTHWEST ARIZONA
  
CITY           SKY/WX    TMP DP  RH WIND       PRES   REMARKS
BULLHEAD CITY  MOSUNNY   81  36  19 S8        29.75F                  
KINGMAN        MOSUNNY   69  33  26 SW15      29.84F                  
6HR MIN TEMP:  61; 6HR MAX TEMP:  70; 6HR PCP: TRACE;                

$$

AZZ004>008-015-016-018-300100-
NORTH CENTRAL ARIZONA
  
CITY           SKY/WX    TMP DP  RH WIND       PRES   REMARKS
GRAND CANYON   PTSUNNY   52  32  46 SW12G23   29.90R                  
6HR MIN TEMP:  46; 6HR MAX TEMP:  57; 6HR PCP: TRACE;                

WILLIAMS       PTSUNNY   50  32  50 NW6G12    29.99F                  
PRESCOTT       LGT RAIN  57  36  45 N6        29.89S                  
6HR MIN TEMP:  51; 6HR MAX TEMP:  63; 6HR PCP:  0.06;                

FLAGSTAFF      CLOUDY    44  36  73 S12       29.92R                  
6HR MIN TEMP:  41; 6HR MAX TEMP:  51; 6HR PCP:  0.02;                

PAYSON         LGT RAIN  52  39  62 SW8G14    29.94S                  
PAGE           CLOUDY    63  32  31 NW8       29.77S                  
6HR MIN TEMP:  56; 6HR MAX TEMP:  65;                                

$$

AZZ009>014-017-300100-
NORTHEAST ARIZONA
  
CITY           SKY/WX    TMP DP  RH WIND       PRES   REMARKS
WINSLOW        PTSUNNY   60  35  39 SW29G40   29.83R                  
6HR MIN TEMP:  54; 6HR MAX TEMP:  66; 6HR PCP: TRACE;                

SAINT JOHNS    MOSUNNY   52  36  54 W13       29.86F                  
6HR MIN TEMP:  45; 6HR MAX TEMP:  58; 6HR PCP:  0.03;                

WINDOW ROCK    PTSUNNY   49  32  52 N8        29.86S                  
6HR MIN TEMP:  44; 6HR MAX TEMP:  54; 6HR PCP: TRACE;                

SHOW LOW       MOSUNNY   52  28  40 SW17G28   29.92R                  
$$

AZZ023-300100-
GREATER PHOENIX AREA
  
CITY           SKY/WX    TMP DP  RH WIND       PRES   REMARKS
PHOENIX        PTSUNNY   81  36  19 W15       29.76F                  
6HR MIN TEMP:  71; 6HR MAX TEMP:  82;                                

BUCKEYE        MOSUNNY   82  34  17 W15G21    29.78F                  
GLENDALE       MOSUNNY   81  36  19 S16G23    29.77F                  
LUKE AFB       PTSUNNY   82  34  17 SW18      29.74F                  
6HR MIN TEMP:  72; 6HR MAX TEMP:  83;                                

DEER VALLEY    PTSUNNY   78  35  21 S20       29.76F                  
6HR MIN TEMP:  69; 6HR MAX TEMP:  79;                                

SCOTTSDALE     PTSUNNY   77  33  20 W14G21    29.79F                  
6HR MIN TEMP:  69; 6HR MAX TEMP:  79;                                

MESA-FALCON    PTSUNNY  N/A N/A N/A W17       29.76F                  
MESA-GATEWAY   PTSUNNY   75  36  23 SW8G17    29.80F                  
CHANDLER       SUNNY     79  34  19 SW12G23   29.79F                  
$$

AZZ027-028-300100-
SOUTHWEST MARICOPA COUNTY AND PINAL COUNTY
  
CITY           SKY/WX    TMP DP  RH WIND       PRES   REMARKS
CASA GRANDE    MOSUNNY   77  34  20 W14G21    29.82F                  
6HR MIN TEMP:  72; 6HR MAX TEMP:  79;                                

GILA BEND      MOSUNNY   81  33  17 SW10      29.77F                  
6HR MIN TEMP:  74; 6HR MAX TEMP:  83;                                

$$

AZZ503-504-507>509-300100-
SOUTHEAST ARIZONA
  
CITY           SKY/WX    TMP DP  RH WIND       PRES   REMARKS
TUCSON         MOSUNNY   75  30  19 W15       29.86F                  
6HR MIN TEMP:  68; 6HR MAX TEMP:  76;                                

DAVIS-MONTHAN  MOSUNNY   74  32  21 W7G16     29.84F                  
6HR MIN TEMP:  66; 6HR MAX TEMP:  74;                                

RYAN FIELD     MOSUNNY   75  32  20 W13G20    29.86F                  
NOGALES        PTSUNNY   71  29  21 SW7       29.90F                  
6HR MIN TEMP:  64; 6HR MAX TEMP:  74;                                

SIERRA VISTA   PTSUNNY   67  24  19 W16G22    29.93S                  
6HR MIN TEMP:  60; 6HR MAX TEMP:  70;                                

DOUGLAS        CLOUDY    69  26  20 NW12      29.88F                  
6HR MIN TEMP:  63; 6HR MAX TEMP:  73;                                

SAFFORD        MOSUNNY   71  31  22 W21G29    29.83S                  
6HR MIN TEMP:  66; 6HR MAX TEMP:  74;                                

$$

AZZ020-021-025-026-031-300100-
SOUTHWEST ARIZONA
  
CITY           SKY/WX    TMP DP  RH WIND       PRES   REMARKS
YUMA           MOSUNNY   85  34  16 W10G17    29.77F                  
6HR MIN TEMP:  75; 6HR MAX TEMP:  86;                                

$$

CAZ031-033-041-043-047-048-061-300100-
SOUTHERN CALIFORNIA
  
CITY           SKY/WX    TMP DP  RH WIND       PRES   REMARKS
DOWNTOWN L.A.  MOSUNNY   64  51  62 W5        29.94F                  
6HR MIN TEMP:  64; 6HR MAX TEMP:  69;                                

L.A. AIRPORT   PTSUNNY   62  53  72 W15       29.95F                  
6HR MIN TEMP:  61; 6HR MAX TEMP:  67;                                

SAN DIEGO      PTSUNNY   65  51  60 NW9       29.98F                  
6HR MIN TEMP:  65; 6HR MAX TEMP:  68;                                

BURBANK        SUNNY     66  49  54 S9        29.92F                  
6HR MIN TEMP:  62; 6HR MAX TEMP:  69;                                

ONTARIO        MOSUNNY   69  48  47 SW14      29.91F                  
6HR MIN TEMP:  60; 6HR MAX TEMP:  72;                                

RIVERSIDE      SUNNY     70  48  45 W12G18    29.91F                  
6HR MIN TEMP:  63; 6HR MAX TEMP:  74;                                

PALM SPRINGS   MOSUNNY   84  42  22 NW18G25   29.77F                  
6HR MIN TEMP:  74; 6HR MAX TEMP:  86;                                

EL CENTRO NAS  MOSUNNY   89  29  11 W26       29.76F                  
6HR MIN TEMP:  77; 6HR MAX TEMP:  89;                                

IMPERIAL       SUNNY     88  36  15 W10G20    29.72F                  
6HR MIN TEMP:  77; 6HR MAX TEMP:  89;                                

BLYTHE         MOSUNNY   87  35  15 W15G22    29.74F                  
6HR MIN TEMP:  76; 6HR MAX TEMP:  88;                                

NEEDLES        MOSUNNY   84  32  15 W9        29.73F                  
6HR MIN TEMP:  72; 6HR MAX TEMP:  84;                                

$$

NVZ020-UTZ003-300100-
SOUTHERN NEVADA-UTAH
  
CITY           SKY/WX    TMP DP  RH WIND       PRES   REMARKS
LAS VEGAS      PTSUNNY   76  35  22 E13G18    29.70F                  
6HR MIN TEMP:  67; 6HR MAX TEMP:  77;                                

SALT LAKE CITY PTSUNNY   57  35  43 W6        29.82S                  
6HR MIN TEMP:  50; 6HR MAX TEMP:  59;                                

$$

NMZ009-TXZ055-300100-
NEW MEXICO-WEST TEXAS
  
CITY           SKY/WX    TMP DP  RH WIND       PRES   REMARKS
ALBUQUERQUE    CLOUDY    55  34  45 N10       29.81R                  
6HR MIN TEMP:  50; 6HR MAX TEMP:  59; 6HR PCP: TRACE;                

EL PASO        MOSUNNY   72  21  14 W21G33    29.81R                  
6HR MIN TEMP:  66; 6HR MAX TEMP:  74;                                

$$


........................KEY........................
SKY/WX - SKY CONDITION/WEATHER
TMP    - TEMPERATURE IN FAHRENHEIT
DP     - DEW POINT IN FAHRENHEIT
RH     - RELATIVE HUMIDITY IN PERCENT
WIND   - DIRECTION AND SPEED IN MILES PER HOUR (MPH)
VRB    - VARIABLE WIND DIRECTION
PRES   - MEAN SEA LEVEL PRESSURE IN INCHES OF MERCURY
         F - FALLING PRESSURE   R - RISING PRESSURE
         S - STEADY PRESSURE
VSB    - VISIBILITY IN MILES
HX     - HEAT INDEX IN FAHRENHEIT
WCI    - WIND CHILL INDEX IN FAHRENHEIT
TC     - TEMPERATURE IN CELSIUS WHICH IS ALSO KNOWN AS
         TEMPERATURE IN CENTIGRADE
AFB    - AIR FORCE BASE
         LUKE AFB IS LUKE AIR FORCE BASE
         DAVIS-MONTHAN IS DAVIS-MONTHAN AIR FORCE BASE
NAS    - NAVAL AIR STATION
         EL CENTRO NAS IS EL CENTRO NAVAL AIR STATION
N/A    - NOT AVAILABLE

  

Return to Home page


Western Regional Climate Center, wrcc@dri.edu